Regional Weather Roundup
Issued by NWS

Home | Current Version | Previous Version | Text Only | Print | Product List | Glossary Off
Versions: 1 2 3 4 5 6 7 8 9 10 11 12 13 14 15 16 17 18 19 20 21 22 23 24 25 26 27 28 29 30 31 32 33 34 35 36 37 38 39 40 41 42 43 44 45 46 47 48 49 50

000
ASUS45 KBOI 011210
RWRID
WEATHER ROUNDUP FOR IDAHO
NATIONAL WEATHER SERVICE BOISE ID
600 AM MDT MON SEP 01 2014

NOTE: "FAIR" INDICATES FEW OR NO CLOUDS BELOW 12000 FEET
WITH NO SIGNIFICANT WEATHER AND/OR OBSTRUCTIONS TO VISIBILITY

IDZ012-014-011300-
SOUTHWEST IDAHO


CITY           SKY/WX    TMP DP  RH WIND       PRES   REMARKS
BOISE          CLEAR     50  42  74 S3        30.05R
CALDWELL       CLEAR     52  36  54 W6        30.07R
MOUNTAIN HOME  CLEAR     50  41  73 NW7       30.04R
$$

IDZ016-017-011300-
SOUTHCENTRAL IDAHO


CITY           SKY/WX    TMP DP  RH WIND       PRES   REMARKS
BURLEY         CLEAR     45  40  82 SW7       30.05R
JEROME         CLEAR     49  41  74 S6        30.06R
TWIN FALLS     CLEAR     53  40  61 S12       30.06R
$$

IDZ019>023-011300-
SOUTHEAST IDAHO


CITY           SKY/WX    TMP DP  RH WIND       PRES   REMARKS
IDAHO FALLS    CLEAR     46  40  79 SW10      30.04R
POCATELLO      CLEAR     53  38  56 SW12      30.05R
REXBURG        PTCLDY    47  39  74 S3        30.03R
$$

IDZ006-010-011-018-031-032-011300-
CENTRAL IDAHO MOUNTAINS


CITY           SKY/WX    TMP DP  RH WIND       PRES   REMARKS
MCCALL         CLEAR     37  32  82 CALM      30.08S
HAILEY         CLEAR     45  32  61 NW8       30.09R
STANLEY          N/A     28  26  92 S3        30.15R
SALMON         PTCLDY    46  41  81 SW5       30.06S
CHALLIS        CLEAR     46  38  73 CALM      30.08R
$$

IDZ002-004-006-007-026-011300-
NORTHERN IDAHO


CITY           SKY/WX    TMP DP  RH WIND       PRES   REMARKS
LEWISTON       CLOUDY    62  42  47 CALM      30.03R
LOWELL           N/A     50  47  89 NW5       30.08R
COEUR D`ALENE  CLEAR     46  37  71 SW8       30.02R
MULLAN PASS    MOCLDY    41  36  82 SW6       30.07S
$$


USA.gov is the U.S. government's official web portal to all federal, state and local government web resources and services.